N7QNM-13 Weather Reports


time (UTC)temp
F
wind
direction
speed
knots
gust
knots
rain 1hr
in
rain 24hr
in
rain mn
in
humidity
%
barometer
mb
20260508083116 51 166 0.0 0.0 0.00 0.00 0.00 65 1012.3
20260508082116 52 209 0.0 1.7 0.00 0.00 0.00 62 1012.2
20260508081117 53 110 0.0 2.6 0.00 0.00 0.00 61 1012.2
20260508080117 53 151 0.9 3.5 0.00 0.00 0.00 57 1012.2
20260508075016 52 182 0.9 2.6 0.00 0.00 0.00 61 1012.2
20260508074017 52 226 0.9 2.6 0.00 0.00 0.00 63 1012.1
20260508073117 53 62 4.3 6.1 0.00 0.00 0.00 63 1012.1
20260508072117 53 116 1.7 4.3 0.00 0.00 0.00 62 1012.0
20260508071117 54 115 1.7 3.5 0.00 0.00 0.00 60 1012.0
20260508070117 55 220 0.0 0.9 0.00 0.00 0.00 57 1011.9
20260508065017 55 126 0.0 1.7 0.00 0.00 0.00 55 1011.9
20260508064017 56 152 0.0 0.9 0.00 0.00 0.00 55 1011.9
20260508063037 56 0.0 0.0 0.00 0.00 0.00 55 1011.9
20260508062117 57 111 0.9 4.3 0.00 0.00 0.00 54 1011.8
20260508061118 57 131 0.9 2.6 0.00 0.00 0.00 54 1011.8
20260508060018 59 108 0.0 1.7 0.00 0.00 0.00 53 1011.7
20260508055018 59 3 0.0 0.9 0.00 0.00 0.00 49 1011.6
20260508054018 59 190 0.0 1.7 0.00 0.00 0.00 49 1011.5
20260508053018 60 172 0.0 1.7 0.00 0.00 0.00 51 1011.5
20260508052018 59 131 0.9 2.6 0.00 0.00 0.00 51 1011.5
20260508051018 60 179 0.0 0.9 0.00 0.00 0.00 51 1011.4
20260508050039 61 97 0.0 0.9 0.00 0.00 0.00 50 1011.3
20260508045019 62 114 0.0 1.7 0.00 0.00 0.00 48 1011.3
20260508044019 64 251 1.7 3.5 0.00 0.00 0.00 48 1011.2
20260508043019 65 229 0.9 3.5 0.00 0.00 0.00 42 1011.1
20260508042019 67 256 0.9 3.5 0.00 0.00 0.00 42 1011.1
20260508041019 68 268 0.9 3.5 0.00 0.00 0.00 40 1011.0
20260508040019 70 0.0 0.0 0.00 0.00 0.00 38 1011.0
20260508035020 71 211 0.0 2.6 0.00 0.00 0.00 37 1010.9
20260508034019 72 284 2.6 4.3 0.00 0.00 0.00 36 1010.7
20260508033019 73 157 0.9 4.3 0.00 0.00 0.00 34 1010.6
20260508032100 73 129 1.7 6.1 0.00 0.00 0.00 33 1010.6
20260508031020 74 131 1.7 6.1 0.00 0.00 0.00 33 1010.6
20260508030020 74 121 2.6 7.8 0.00 0.00 0.00 33 1010.6
20260508025040 74 121 2.6 7.8 0.00 0.00 0.00 33 1010.7
20260508024020 74 105 3.5 10.4 0.00 0.00 0.00 32 1010.6
20260508023040 75 106 3.5 9.6 0.00 0.00 0.00 30 1010.6
20260508022020 76 138 1.7 5.2 0.00 0.00 0.00 31 1010.7
20260508021023 76 160 0.9 6.1 0.00 0.00 0.00 30 1010.8
20260508020020 76 149 3.5 7.8 0.00 0.00 0.00 30 1010.9
20260508015021 76 163 4.3 9.6 0.00 0.00 0.00 28 1010.8
20260508014021 77 152 2.6 9.6 0.00 0.00 0.00 30 1010.9
20260508013021 78 163 3.5 7.8 0.00 0.00 0.00 30 1010.9
20260508012021 79 148 3.5 11.3 0.00 0.00 0.00 31 1010.9
20260508011021 79 163 4.3 12.2 0.00 0.00 0.00 31 1010.9
20260508010021 80 160 4.3 10.4 0.00 0.00 0.00 31 1011.0
20260508005042 80 204 4.3 7.8 0.00 0.00 0.00 31 1011.1
20260508004022 80 167 4.3 9.6 0.00 0.00 0.00 32 1011.1
20260508003022 79 182 4.3 9.6 0.00 0.00 0.00 34 1011.2
20260508002042 79 102 3.5 9.6 0.00 0.00 0.00 36 1011.3
20260508001022 79 75 3.5 8.7 0.00 0.00 0.00 36 1011.3
20260508000022 78 99 3.5 8.7 0.00 0.00 0.00 36 1011.4
20260507235023 78 65 3.5 9.6 0.00 0.00 0.00 37 1011.4
20260507234023 79 50 2.6 8.7 0.00 0.00 0.00 37 1011.5
20260507233023 80 94 2.6 7.0 0.00 0.00 0.00 36 1011.7
20260507232023 80 36 1.7 5.2 0.00 0.00 0.00 35 1011.8
20260507231023 80 41 1.7 7.0 0.00 0.00 0.00 35 1011.9
20260507230023 79 353 0.0 0.9 0.00 0.00 0.00 35 1012.0
20260507225023 79 68 2.6 6.1 0.00 0.00 0.00 35 1012.1
20260507224043 79 45 1.7 7.0 0.00 0.00 0.00 36 1012.2
20260507223024 79 345 0.9 4.3 0.00 0.00 0.00 36 1012.3
20260507222023 79 311 0.9 3.5 0.00 0.00 0.00 36 1012.5
20260507221044 78 321 0.9 6.1 0.00 0.00 0.00 36 1012.6
20260507220024 78 309 1.7 7.8 0.00 0.00 0.00 36 1012.7
20260507215024 77 321 1.7 5.2 0.00 0.00 0.00 37 1012.8
20260507214024 76 320 1.7 4.3 0.00 0.00 0.00 38 1012.9
20260507213024 76 350 1.7 3.5 0.00 0.00 0.00 38 1013.0
20260507212044 76 53 2.6 7.0 0.00 0.00 0.00 38 1013.1
20260507211024 78 64 2.6 7.8 0.00 0.00 0.00 37 1013.2
20260507210044 77 144 0.9 4.3 0.00 0.00 0.00 36 1013.4
20260507205024 75 55 0.9 3.5 0.00 0.00 0.00 38 1013.5
20260507204025 75 56 4.3 10.4 0.00 0.00 0.00 39 1013.6
20260507203045 75 58 1.7 7.0 0.00 0.00 0.00 38 1013.7
20260507202045 74 117 3.5 7.8 0.00 0.00 0.00 39 1013.8
20260507201025 75 111 4.3 10.4 0.00 0.00 0.00 38 1013.9
20260507200025 75 184 5.2 10.4 0.00 0.00 0.00 38 1013.9
20260507195025 74 160 3.5 12.2 0.00 0.00 0.00 40 1014.0
20260507194025 74 100 2.6 6.1 0.00 0.00 0.00 40 1014.1
20260507193025 74 89 1.7 7.8 0.00 0.00 0.00 41 1014.1
20260507192026 74 203 5.2 13.0 0.00 0.00 0.00 39 1014.2
20260507191026 73 73 2.6 7.8 0.00 0.00 0.00 41 1014.2
20260507190026 73 132 4.3 10.4 0.00 0.00 0.00 41 1014.3
20260507185026 73 272 1.7 6.1 0.00 0.00 0.00 40 1014.2
20260507184026 73 238 2.6 8.7 0.00 0.00 0.00 37 1014.3
20260507183026 72 284 1.7 7.0 0.00 0.00 0.00 36 1014.4
20260507182026 72 303 3.5 10.4 0.00 0.00 0.00 36 1014.4
20260507181027 71 320 1.7 8.7 0.00 0.00 0.00 39 1014.4
20260507180027 71 294 2.6 11.3 0.00 0.00 0.00 40 1014.5
20260507175026 70 304 4.3 10.4 0.00 0.00 0.00 41 1014.6
20260507174027 70 288 3.5 8.7 0.00 0.00 0.00 41 1014.6
20260507173027 70 302 2.6 7.8 0.00 0.00 0.00 41 1014.7
20260507172027 69 292 2.6 7.0 0.00 0.00 0.00 40 1014.7
20260507171027 68 264 3.5 7.0 0.00 0.00 0.00 43 1014.8
20260507170107 67 226 2.6 6.1 0.00 0.00 0.00 43 1015.0
20260507165047 67 289 3.5 7.8 0.00 0.00 0.00 44 1015.0
20260507164027 66 301 3.5 7.0 0.00 0.00 0.00 44 1015.1
20260507163028 66 278 2.6 7.0 0.00 0.00 0.00 45 1015.1
20260507162028 65 266 2.6 5.2 0.00 0.00 0.00 46 1015.1
20260507161028 65 230 1.7 4.3 0.00 0.00 0.00 48 1015.2
20260507160028 65 251 1.7 3.5 0.00 0.00 0.00 48 1015.3
20260507155048 63 239 2.6 5.2 0.00 0.00 0.00 49 1015.2
20260507154028 63 259 5.2 8.7 0.00 0.00 0.00 49 1015.1
20260507153028 63 247 4.3 7.0 0.00 0.00 0.00 49 1015.1
20260507152029 63 264 2.6 6.1 0.00 0.00 0.00 49 1015.1
20260507151029 62 273 3.5 8.7 0.00 0.00 0.00 51 1015.0
20260507150028 62 266 6.1 7.8 0.00 0.00 0.00 50 1014.9
20260507145028 61 253 5.2 7.8 0.00 0.00 0.00 53 1014.9
20260507144050 60 262 5.2 9.6 0.00 0.00 0.00 54 1014.9
20260507143034 58 260 4.3 7.0 0.00 0.00 0.00 57 1014.8
20260507142029 56 264 4.3 7.0 0.00 0.00 0.00 69 1014.7
20260507141030 55 202 0.0 1.7 0.00 0.00 0.00 78 1014.8
20260507140049 53 0.0 0.0 0.00 0.00 0.00 79 1014.7
20260507135029 52 104 2.6 5.2 0.00 0.00 0.00 79 1014.7
20260507134030 50 98 0.0 2.6 0.00 0.00 0.00 83 1014.6
20260507133030 49 59 2.6 4.3 0.00 0.00 0.00 83 1014.4
20260507132030 48 66 0.9 3.5 0.00 0.00 0.00 84 1014.4
20260507131030 47 83 0.0 2.6 0.00 0.00 0.00 84 1014.4
20260507130030 47 90 0.9 3.5 0.00 0.00 0.00 84 1014.3
20260507125030 47 247 0.9 2.6 0.00 0.00 0.00 83 1014.1
20260507124030 47 253 1.7 3.5 0.00 0.00 0.00 83 1014.1
20260507123111 47 140 0.9 3.5 0.00 0.00 0.00 83 1014.1
20260507122030 48 68 0.0 1.7 0.00 0.00 0.00 83 1014.1
20260507121051 48 86 3.5 5.2 0.00 0.00 0.00 82 1014.1
20260507120111 48 91 0.9 3.5 0.00 0.00 0.00 81 1014.0
20260507115031 49 71 2.6 4.3 0.00 0.00 0.00 78 1014.0
20260507114031 49 55 0.0 0.9 0.00 0.00 0.00 77 1013.9
20260507113031 49 232 0.9 1.7 0.00 0.00 0.00 76 1013.8
20260507112032 49 216 0.0 0.9 0.00 0.00 0.00 76 1013.6
20260507111031 49 232 0.0 2.6 0.00 0.00 0.00 75 1013.6
20260507110031 50 108 0.0 2.6 0.00 0.00 0.00 73 1013.6
20260507105032 51 105 0.0 1.7 0.00 0.00 0.00 73 1013.6
20260507104052 52 99 0.0 0.9 0.00 0.00 0.00 72 1013.7
20260507103032 52 155 0.0 1.7 0.00 0.00 0.00 70 1013.8
20260507102032 53 212 0.0 1.7 0.00 0.00 0.00 68 1013.8
20260507101032 54 81 1.7 3.5 0.00 0.00 0.00 68 1013.7
20260507100032 55 210 0.0 1.7 0.00 0.00 0.00 65 1013.6
20260507095032 56 92 0.9 3.5 0.00 0.00 0.00 63 1013.6
20260507094052 58 63 1.7 4.3 0.00 0.00 0.00 59 1013.6
20260507093032 59 133 0.0 0.0 0.00 0.00 0.00 57 1013.6
20260507092033 61 256 2.6 4.3 0.00 0.00 0.00 55 1013.5
20260507091033 62 238 2.6 4.3 0.00 0.00 0.00 53 1013.5
20260507090033 62 210 2.6 6.1 0.00 0.00 0.00 52 1013.5
20260507085033 62 204 2.6 6.1 0.00 0.00 0.00 52 1013.4
20260507084033 61 211 1.7 4.3 0.00 0.00 0.00 52 1013.4